Location: Bailleul
(50.3375°N, 2.8513°E)
Time: 15:53:18
(UTC+00:00)

Cosmos 1709 Rocket - Pass Details

Date: 19 April 2021
Orbit: 948 x 1002 km, 82.9° (Epoch: 07 May)

Event Time Altitude Azimuth Distance (km) Brightness Sun altitude
Rises 22:17:35 0° 352° (N) 3,690 8.2 -25.1°
Reaches altitude 10° 22:20:12 10° 357° (N) 2,730 7.2 -25.3°
Maximum altitude 22:26:19 53° 75° (ENE) 1,168 4.3 -25.7°
Enters shadow 22:27:15 49° 105° (ESE) 1,227 4.2 -25.7°
